Regional Weather Roundup
Issued by NWS Upton, NY

Current Version | Previous Version | Graphics & Text | Print | Product List | Glossary Off
Versions: 1 2 3 4 5 6 7 8 9 10 11 12 13 14 15 16 17 18 19 20 21 22 23 24 25 26 27 28 29 30 31 32 33 34 35 36 37 38 39 40 41 42 43 44 45 46 47 48 49 50

000
ASUS41 KOKX 010705
RWROKX
REGIONAL WEATHER ROUNDUP
NATIONAL WEATHER SERVICE NEW YORK NY
300 AM EDT WED OCT 01 2014

NOTE: "FAIR" INDICATES FEW OR NO CLOUDS BELOW 12,000 FEET WITH NO
SIGNIFICANT WEATHER AND/OR OBSTRUCTIONS TO VISIBILITY.

NYZ071-072-176-178-NJZ106-104-010800-
NEW YORK CITY METRO AREA


CITY           SKY/WX    TMP DP  RH WIND       PRES   REMARKS
CENTRAL PARK   CLOUDY    63  57  81 VRB3      30.01F
LAGUARDIA APRT CLOUDY    62  59  90 NE10      29.98F
KENNEDY INTL   CLOUDY    62  58  86 N8        29.99S
NEWARK/LIBERTY CLOUDY    63  58  83 NE7       29.99S
BRNX BOT. GARD   N/A     61  55  82 N3        29.99F
TETERBORO      CLOUDY    63  56  78 N5        29.98F
$$

NYZ177-179-078>081-010800-
LONG ISLAND NEW YORK

CITY           SKY/WX    TMP DP  RH WIND       PRES   REMARKS
FARMINGDALE    CLOUDY    62  58  86 N7        29.98F
ISLIP          CLOUDY    61  57  87 N7        29.95F
SHIRLEY        LGT RAIN  59  57  93 VRB5      29.98F FOG
WESTHAMPTON    CLOUDY    60  56  86 N8        29.99S
MONTAUK POINT    N/A     60  57  89 NE10      29.98F
$$

NYZ052-065-067-010800-
HUDSON VALLEY

CITY           SKY/WX    TMP DP  RH WIND       PRES   REMARKS
WHITE PLAINS   LGT RAIN  59  56  89 NE3       29.99S
NEWBURGH       MOCLDY    57  55  94 CALM      30.02S
MONTGOMERY     MOCLDY    56  54  93 CALM      30.01F
POUGHKEEPSIE   CLOUDY    58  55  90 NE3       30.00F
ALBANY         CLOUDY    60  56  86 CALM      30.03S
$$

NJZ001-105-106-008-010-013-015-019>022-104-010800-
NEW JERSEY

CITY           SKY/WX    TMP DP  RH WIND       PRES   REMARKS
NEWARK/LIBERTY CLOUDY    63  58  83 NE7       29.99S
TETERBORO      CLOUDY    63  56  78 N5        29.98F
CALDWELL       CLOUDY    61  55  81 NE5       30.00F
MORRISTOWN     CLOUDY    63  57  82 CALM      30.00S
SOMERVILLE     CLOUDY    60  57  89 NW3       29.98S
LINDEN         CLOUDY    67  61  80 NE5       30.00F
SUSSEX         CLOUDY    61  56  83 NE3       30.02S
ANDOVER          N/A     58  57  97 CALM      30.01S
TRENTON        CLOUDY    62  58  86 N6        29.98S
MILLVILLE      CLOUDY    61  59  93 N3        29.96F
ATLANTIC CITY  CLOUDY    63  62  97 N7        29.95S
WRIGHTSTOWN    LGT RAIN  63  61  94 NE5       29.96R FOG
TOMS RIVER     CLOUDY    63  61  94 NE6       29.97S
BELMAR         CLOUDY    61  55  82 N7        29.97F
$$

PAZ047>061-062-071-010800-
EASTERN PENNSYLVANIA

CITY           SKY/WX    TMP DP  RH WIND       PRES   REMARKS
PHILADELPHIA   CLOUDY    65  58  78 NE9       29.98F
ALLENTOWN      CLOUDY    62  58  86 CALM      30.01S
SCRANTON       CLOUDY    61  57  87 CALM      30.01S
$$

CTZ002-004>006-009-010-012-RIZ004-006-007-MAZ004-011-015-010800-
SOUTHERN NEW ENGLAND
 IN CT

CITY           SKY/WX    TMP DP  RH WIND       PRES   REMARKS
BRADLEY INTL   CLOUDY    59  56  89 N8        30.01F
HARTFORD       CLOUDY    59  56  89 N8        30.01F
DANBURY        CLOUDY    59  55  87 CALM      30.01F
WTRBRY/OXFORD  CLOUDY    57  52  82 N8        30.02F
BRIDGEPORT     CLOUDY    60  58  92 N12       29.98F
MERIDEN        LGT RAIN  58  56  93 N6        30.00F
NEW HAVEN      CLOUDY    61  57  87 N7        29.99F
CHESTER        LGT RAIN  57  55  94 N8        29.99F
GROTON         LGT RAIN  56  56 100 N13       29.97F
WILLIMANTIC    CLOUDY    58  55  90 NE12      30.01F

 IN RI

CITY           SKY/WX    TMP DP  RH WIND       PRES   REMARKS
PROVIDENCE     CLOUDY    57  55  93 N12       30.00F
BLOCK ISLAND   CLOUDY    59  55  88 NE16      29.97F
WESTERLY       LGT RAIN  57  56  96 N7        29.98F

 IN MA

CITY           SKY/WX    TMP DP  RH WIND       PRES   REMARKS
BOSTON         CLOUDY    57  55  93 N13       30.01F
WORCESTER      CLOUDY    54  53  97 NE9       30.04S
WESTFIELD      LGT RAIN  58  56  93 N7        30.02F FOG
PROVINCETOWN   CLOUDY    61  57  88 NE16      29.98F
NANTUCKET      LGT RAIN  62  61  96 N17       29.94F
$$

ANZ330-335-338-340-345-350-353-355-010800-
COASTAL MARINE OBSERVATIONS


STATION/POSITION TIME  SKY/WX   TEMP    WIND        PRES    VSBY  WAVE
                                AIR SEA DIR/SP/G                  HT/PER
                 (UTC)          (F)     (DEG/KT/KT) (MB)    (MI)  (FT/S)
NY HARB ENTRANCE NOT AVBL
4S FIRE IS       0700               68                N/A           3/ 5
20S FIRE ISLAND  0700            63 67   50/ 16/ 19 1013.9          5/ 6
23SW MTP         0700                                 N/A           4/ 6
HUDSON CANYON    0700            67 69   30/ 17/ 21 1012.2          5/ 6
EXECUTION ROCKS  0700            63 68   40/ 14/ 17   N/A
WESTERN LI SOUND 0700            62      50/ 12/ 16   N/A           1/ 4
CENTRAL LI SOUND 0600            60 68   30/ 12/ 16   N/A           2/ 2
EASTERN LI SOUND 0600            60 66   30/ 12/ 16   N/A
ROBBINS REEF     0700            63      50/ 11/ 13 1014.2
$$


>>>>>>>>>>>>>>>>>>>>>>>>>>>> KEY <<<<<<<<<<<<<<<<<<<<<<<<<<<
>                                                          <
>     SKY/WX - SKY CONDITION/PRESENT WEATHER               <
>     TMP    - TEMPERATURE IN FAHRENHEIT                   <
>     DP     - DEWPOINT IN FAHRENHEIT                      <
>     RH     - RELATIVE HUMIDITY IN PERCENT                <
>     WIND   - DIRECTION AND SPEED IN MPH                  <
>     PRES   - MEAN SEA LEVEL PRESSURE IN INCHES OF HG     <
>     WCI    - WIND CHILL INDEX                            <
>     VSB    - VISIBILITY IN MILES                         <
>     HX     - HEAT INDEX                                  <
>     TC     - TEMPERATURE IN CELSIUS                      <
>     VRB    - VARIABLE WIND DIRECTION                     <
>                                                          <
>>>>>>>>>>>>>>>>>>>>>>>>>>>> KEY <<<<<<<<<<<<<<<<<<<<<<<<<<<




USA.gov is the U.S. government's official web portal to all federal, state and local government web resources and services.